Location: Middle Street
(51.7167°N, 0.0333°E)
Time: 23:42:05
(UTC+00:00)

COSMOS 2455 - Pass Details

Date: 20 January 2021
Orbit: 901 x 908 km, 67.1° (Epoch: 01 March)

Event Time Altitude Azimuth Distance (km) Brightness Sun altitude
Rises 19:26:59 0° 234° (SW) 3,526 6.7 -27.2°
Reaches altitude 10° 19:29:33 10° 239° (WSW) 2,589 5.9 -27.6°
Maximum altitude 19:35:26 53° 316° (NW) 1,105 3.4 -28.5°
Enters shadow 19:37:14 40° 6° (N) 1,320 3.6 -28.8°
